CW4114 Weather Reports


time (UTC)temp
F
wind
direction
speed
knots
gust
knots
rain 1hr
in
rain 24hr
in
rain mn
in
humidity
%
barometer
mb
20260901054327 67 48 0.0 0.9 0.00 0.02 0.00 94 1010.1
20260901053827 67 48 0.9 0.9 0.00 0.02 0.00 94 1010.1
20260901053325 68 47 0.0 0.0 0.00 0.02 0.00 94 1010.3
20260901052826 68 47 0.0 0.0 0.00 0.02 0.00 94 1010.3
20260901052553 68 45 0.0 0.0 0.00 0.02 0.00 94 1010.3
20260901052054 68 45 0.0 0.0 0.00 0.02 0.00 94 1010.3
20260901051325 68 47 0.0 0.0 0.00 0.02 0.00 93 1010.4
20260901051054 69 47 0.0 0.9 0.00 0.02 0.00 93 1010.3
20260901050326 69 45 0.0 1.7 0.00 0.02 0.00 94 1010.3
20260901045821 69 45 0.9 1.7 0.00 0.02 0.00 94 1010.5
20260901045321 69 52 0.9 0.9 0.00 0.02 0.00 93 1010.5
20260901044822 69 52 0.0 0.9 0.00 0.02 0.00 93 1010.5
20260901044320 69 52 0.0 0.0 0.00 0.02 0.00 93 1010.5
20260901043819 69 52 0.0 0.9 0.00 0.02 0.00 93 1010.5
20260901043319 69 52 0.0 1.7 0.00 0.02 0.00 92 1010.4
20260901042820 70 55 0.0 1.7 0.00 0.02 0.00 93 1010.5
20260901042320 70 290 0.0 2.6 0.00 0.02 0.00 92 1010.4
20260901042047 71 31 0.0 2.6 0.00 0.02 0.00 92 1010.4
20260901041321 71 28 0.9 3.5 0.00 0.02 0.00 92 1010.5
20260901040819 72 357 0.0 5.2 0.00 0.02 0.00 94 1010.3
20260901040318 72 298 2.6 7.8 0.00 0.02 0.00 94 1010.4
20260901035819 72 268 2.6 7.8 0.00 0.02 0.02 94 1010.2
20260901035543 72 247 2.6 5.2 0.00 0.02 0.02 94 1010.1
20260901034818 72 268 2.6 5.2 0.00 0.02 0.02 94 1010.1
20260901033816 72 250 2.6 5.2 0.00 0.02 0.02 93 1010.0
20260901033317 72 268 3.5 5.2 0.00 0.02 0.02 93 1010.0
20260901032819 72 262 2.6 5.2 0.00 0.02 0.02 93 1010.0
20260901032318 72 251 2.6 5.2 0.00 0.02 0.02 92 1010.0
20260901031815 73 252 2.6 4.3 0.00 0.02 0.02 92 1010.0
20260901031316 73 228 2.6 6.1 0.00 0.02 0.02 92 1009.9
20260901030549 73 226 1.7 4.3 0.00 0.02 0.02 92 1009.9
20260901025816 73 216 2.6 4.3 0.00 0.02 0.02 92 1010.2
20260901025549 73 226 1.7 4.3 0.00 0.02 0.02 92 1010.2
20260901024814 73 210 1.7 5.2 0.00 0.02 0.02 91 1010.2
20260901024316 73 243 1.7 5.2 0.00 0.02 0.02 91 1010.2
20260901023812 73 206 2.6 5.2 0.00 0.02 0.02 91 1010.1
20260901023311 74 178 2.6 7.8 0.00 0.02 0.02 91 1010.2
20260901022810 74 212 3.5 7.8 0.00 0.02 0.02 91 1010.2
20260901022312 74 197 3.5 7.8 0.00 0.02 0.02 91 1010.0
20260901021811 74 210 3.5 7.8 0.00 0.02 0.02 91 1010.0
20260901021310 74 228 2.6 7.8 0.00 0.02 0.02 91 1010.0
20260901020811 74 189 3.5 6.1 0.00 0.02 0.02 91 1010.0
20260901020314 74 209 2.6 6.1 0.00 0.02 0.02 91 1010.1
20260901020036 75 212 1.7 5.2 0.00 0.02 0.02 91 1010.1
20260901015308 75 210 1.7 5.2 0.00 0.02 0.02 91 1010.1
20260901014809 75 227 1.7 5.2 0.00 0.02 0.02 91 1010.3
20260901014306 75 230 2.6 6.1 0.00 0.02 0.02 91 1010.3
20260901014032 75 209 3.5 8.7 0.00 0.02 0.02 90 1010.3
20260901013305 75 244 3.5 8.7 0.00 0.02 0.02 90 1010.2
20260901012806 75 261 3.5 8.7 0.00 0.02 0.02 90 1010.3
20260901012530 75 264 3.5 8.7 0.00 0.02 0.02 90 1010.1
20260901011808 75 230 2.6 8.7 0.00 0.02 0.02 90 1010.0
20260901011529 75 214 4.3 7.8 0.00 0.02 0.02 90 1010.0
20260901010805 75 197 3.5 7.8 0.00 0.02 0.02 90 1010.0
20260901010303 75 202 2.6 6.1 0.00 0.02 0.02 91 1010.0
20260901010036 75 245 2.6 6.1 0.00 0.02 0.02 91 1009.8
20260901004806 75 172 2.6 7.8 0.00 0.02 0.02 90 1009.8
20260901004304 75 186 2.6 7.8 0.00 0.02 0.02 90 1009.8
20260901004034 75 212 3.5 6.1 0.00 0.02 0.02 90 1009.8
20260901003302 74 220 3.5 6.1 0.00 0.02 0.02 90 1009.7
20260901002802 74 245 1.7 5.2 0.00 0.02 0.02 90 1009.7
20260901002305 75 193 1.7 6.1 0.00 0.02 0.02 90 1009.6
20260901001801 75 212 0.9 6.1 0.00 0.02 0.02 90 1009.7
20260901001300 75 159 2.6 5.2 0.00 0.02 0.02 89 1009.7
20260901000802 75 189 3.5 6.1 0.00 0.02 0.02 89 1009.6
20260901000300 75 196 0.9 7.8 0.00 0.02 0.02 89 1009.6
20260831235800 75 210 2.6 7.8 0.00 0.02 0.02 89 1009.7
20260831235255 75 176 1.7 6.1 0.00 0.02 0.02 88 1009.6
20260831234755 75 176 1.7 6.1 0.00 0.02 0.02 88 1009.7
20260831234254 75 175 1.7 4.3 0.00 0.02 0.02 88 1009.7
20260831233753 76 178 2.6 4.3 0.00 0.02 0.02 88 1009.7
20260831233251 76 172 1.7 7.8 0.00 0.02 0.02 88 1009.8
20260831232750 76 166 1.7 7.8 0.00 0.02 0.02 87 1009.9
20260831232248 76 192 2.6 5.2 0.00 0.02 0.02 88 1009.8
20260831231749 76 148 0.9 5.2 0.00 0.02 0.02 87 1009.7
20260831231249 76 176 2.6 5.2 0.00 0.02 0.02 88 1009.8
20260831230747 76 152 0.9 4.3 0.00 0.02 0.02 88 1009.7
20260831230511 76 149 1.7 4.3 0.00 0.02 0.02 88 1009.7
20260831225744 76 165 1.7 7.8 0.00 0.02 0.02 87 1009.8
20260831225508 76 162 2.6 7.8 0.00 0.02 0.02 87 1009.8
20260831224743 77 158 2.6 6.1 0.00 0.02 0.02 87 1009.9
20260831224242 76 142 3.5 7.8 0.00 0.02 0.02 88 1009.9
20260831223742 76 182 3.5 7.8 0.00 0.02 0.02 89 1009.9
20260831223246 76 181 1.7 6.1 0.00 0.02 0.02 91 1009.9
20260831223010 75 149 2.6 6.1 0.00 0.02 0.02 92 1009.8
20260831221740 74 106 0.9 2.6 0.00 0.02 0.02 90 1009.8
20260831221241 74 106 0.9 2.6 0.00 0.02 0.02 89 1009.9
20260831220741 74 78 0.9 2.6 0.00 0.02 0.02 88 1009.8
20260831220240 74 65 0.9 1.7 0.00 0.02 0.02 88 1009.9
20260831215739 74 54 0.0 1.7 0.00 0.02 0.02 88 1009.9
20260831215241 74 59 0.9 1.7 0.00 0.02 0.02 89 1010.0
20260831214737 74 93 0.0 1.7 0.00 0.02 0.02 91 1009.9
20260831214501 74 82 0.0 2.6 0.00 0.02 0.02 91 1009.9
20260831213735 73 79 0.9 2.6 0.00 0.02 0.02 90 1009.9
20260831213234 73 76 0.9 2.6 0.00 0.02 0.02 89 1010.1
20260831212736 73 68 0.9 2.6 0.00 0.02 0.02 90 1010.1
20260831212235 73 73 0.9 2.6 0.00 0.02 0.02 90 1010.1
20260831211736 73 71 0.0 0.9 0.00 0.02 0.02 91 1010.0
20260831211233 73 95 0.0 1.7 0.00 0.02 0.02 92 1010.0
20260831210736 72 97 0.0 1.7 0.00 0.02 0.02 93 1010.1
20260831210233 71 103 0.0 2.6 0.00 0.02 0.02 94 1010.2
20260831205733 70 99 0.9 5.2 0.00 0.02 0.02 94 1010.1
20260831205501 70 357 1.7 6.1 0.00 0.02 0.02 94 1010.2
20260831205000 70 90 2.6 9.6 0.00 0.02 0.02 94 1010.2
20260831204234 69 96 6.1 9.6 0.00 0.02 0.02 94 1010.3
20260831203735 69 87 5.2 9.6 0.00 0.02 0.02 94 1010.3
20260831203233 69 103 3.5 9.6 0.00 0.02 0.02 94 1010.4
20260831202732 69 117 4.3 9.6 0.00 0.02 0.02 94 1010.4
20260831202502 69 113 4.3 8.7 0.00 0.02 0.02 93 1010.5
20260831201732 70 75 4.3 9.6 0.00 0.02 0.02 93 1010.7
20260831201233 70 87 4.3 9.6 0.00 0.02 0.02 93 1010.8
20260831200733 70 103 3.5 9.6 0.00 0.02 0.02 93 1010.8
20260831200232 70 107 6.1 9.6 0.00 0.02 0.02 93 1010.8
20260831200006 70 55 3.5 10.4 0.00 0.02 0.02 93 1010.8
20260831195229 70 107 6.1 11.3 0.00 0.02 0.02 92 1010.8
20260831194955 70 114 6.1 11.3 0.00 0.02 0.02 92 1010.8
20260831194229 70 123 7.0 11.3 0.00 0.02 0.02 92 1010.8
20260831193729 71 95 7.8 11.3 0.00 0.02 0.02 92 1010.7
20260831193229 71 93 6.1 11.3 0.00 0.02 0.02 92 1010.8
20260831192729 71 87 7.0 10.4 0.00 0.02 0.02 91 1010.9
20260831192228 71 80 6.1 9.6 0.00 0.02 0.02 91 1010.7
20260831191728 71 86 7.0 9.6 0.00 0.02 0.02 89 1010.8
20260831191228 72 85 5.2 9.6 0.00 0.02 0.02 88 1010.8
20260831190728 73 87 6.1 10.4 0.00 0.02 0.02 88 1010.9
20260831190456 74 116 5.2 10.4 0.00 0.02 0.02 88 1011.0
20260831185728 74 55 4.3 10.4 0.00 0.02 0.02 88 1011.0
20260831185227 74 87 5.2 9.6 0.00 0.02 0.02 87 1011.1
20260831184728 74 51 3.5 8.7 0.00 0.02 0.02 88 1011.2
20260831184227 74 110 4.3 8.7 0.00 0.02 0.02 89 1011.3
20260831183727 72 48 2.6 7.8 0.00 0.02 0.02 90 1011.3
20260831183227 72 102 5.2 8.7 0.00 0.02 0.02 87 1011.5
20260831182954 74 100 1.7 8.7 0.00 0.02 0.02 85 1011.4
20260831182227 78 73 5.2 7.8 0.00 0.02 0.02 77 1011.4
20260831181727 80 68 3.5 7.8 0.00 0.02 0.02 77 1011.4
20260831181226 80 113 2.6 6.1 0.00 0.02 0.02 79 1011.3
20260831180727 79 178 1.7 6.1 0.00 0.02 0.02 79 1011.4
20260831180228 80 190 1.7 6.1 0.00 0.02 0.02 77 1011.3
20260831175726 81 282 0.9 7.8 0.00 0.02 0.02 79 1011.2
20260831175225 80 179 2.6 9.6 0.00 0.02 0.02 79 1011.4
20260831174726 80 202 4.3 9.6 0.00 0.02 0.02 79 1011.6
20260831174226 80 206 3.5 7.8 0.00 0.02 0.02 80 1011.7
20260831173725 80 168 2.6 7.8 0.00 0.02 0.02 80 1011.7
20260831173225 80 149 1.7 7.8 0.00 0.02 0.02 80 1011.9
20260831172728 79 199 1.7 7.8 0.00 0.02 0.02 81 1012.0
20260831172227 79 199 1.7 8.7 0.00 0.02 0.02 82 1012.2
20260831171725 78 195 3.5 8.7 0.00 0.02 0.02 82 1012.2
20260831171227 79 193 4.3 8.7 0.00 0.02 0.02 83 1012.3
20260831170954 78 224 1.7 6.1 0.00 0.02 0.02 84 1012.3
20260831170224 78 278 3.5 6.1 0.00 0.02 0.02 85 1012.3
20260831165722 78 267 3.5 5.2 0.00 0.02 0.02 87 1012.3
20260831165450 77 183 1.7 6.1 0.00 0.02 0.02 88 1012.3
20260831164725 76 234 3.5 6.1 0.00 0.02 0.02 89 1012.4
20260831164451 76 257 1.7 4.3 0.00 0.02 0.02 90 1012.5
20260831163948 75 168 1.7 5.2 0.00 0.02 0.02 92 1012.5
20260831163223 75 210 2.6 5.2 0.00 0.02 0.02 94 1012.5
20260831162724 73 210 0.9 4.3 0.00 0.02 0.02 95 1012.5
20260831162224 72 141 0.9 3.5 0.00 0.02 0.02 96 1012.6
20260831161723 72 169 0.0 4.3 0.00 0.02 0.02 96 1012.7
20260831161450 71 186 2.6 5.2 0.00 0.02 0.02 96 1012.8
20260831160723 71 192 2.6 5.2 0.00 0.02 0.02 96 1012.9
20260831160451 71 204 0.9 4.3 0.00 0.02 0.02 97 1012.9
20260831155951 71 157 0.9 4.3 0.00 0.02 0.02 97 1012.7
20260831155221 71 106 1.7 3.5 0.01 0.02 0.02 97 1012.9
20260831154722 70 154 0.9 3.5 0.01 0.02 0.02 97 1013.1
20260831154222 70 138 1.7 3.5 0.01 0.02 0.02 97 1013.1
20260831153722 69 135 0.9 3.5 0.01 0.02 0.02 97 1013.2
20260831153222 69 134 0.9 2.6 0.01 0.02 0.02 97 1013.3
20260831152221 69 62 0.9 4.3 0.01 0.02 0.02 97 1013.2
20260831151722 69 128 1.7 4.3 0.01 0.02 0.02 97 1013.2
20260831151221 69 123 0.9 4.3 0.01 0.02 0.02 98 1013.2
20260831150715 69 135 0.9 4.3 0.01 0.02 0.02 98 1013.2
20260831150220 69 181 0.0 5.2 0.02 0.02 0.02 98 1013.3
20260831145703 69 151 0.9 5.2 0.02 0.00 0.02 98 1013.4
20260831145203 69 214 1.7 3.5 0.01 0.00 0.01 98 1013.5
20260831144700 69 216 1.7 4.3 0.01 0.00 0.01 98 1013.4
20260831144424 69 190 1.7 4.3 0.01 0.00 0.01 98 1013.4
20260831143700 69 141 2.6 4.3 0.01 0.00 0.01 98 1013.2
20260831143158 68 182 1.7 3.5 0.01 0.00 0.01 98 1013.3
20260831142657 68 176 1.7 5.2 0.01 0.00 0.01 98 1013.4
20260831142150 68 220 2.6 5.2 0.01 0.00 0.01 98 1013.4
20260831141653 68 157 1.7 3.5 0.01 0.00 0.01 98 1013.5
20260831141146 68 236 1.7 5.2 0.01 0.00 0.01 98 1013.5
20260831140645 68 223 0.0 5.2 0.01 0.00 0.01 98 1013.5
20260831140412 68 166 1.7 4.3 0.00 0.00 0.00 98 1013.5
20260831135646 68 203 1.7 4.3 0.00 0.00 0.00 98 1013.6
20260831135146 68 209 0.9 2.6 0.00 0.00 0.00 98 1013.7
20260831134644 68 244 1.7 2.6 0.00 0.00 0.00 98 1013.7
20260831134144 68 247 1.7 2.6 0.00 0.00 0.00 98 1013.7
20260831133643 68 224 0.9 3.5 0.00 0.00 0.00 98 1013.6
20260831133142 68 220 0.9 3.5 0.00 0.00 0.00 98 1013.3
20260831132656 68 188 0.9 3.5 0.00 0.00 0.00 98 1013.2
20260831132254 68 185 0.0 3.5 0.00 0.01 0.00 98 1013.1
20260831131642 68 206 1.7 3.5 0.00 0.01 0.00 98 1013.1
20260831131140 67 189 0.0 3.5 0.00 0.01 0.00 98 1013.0
20260831130640 67 206 0.9 3.5 0.00 0.01 0.00 98 1013.1
20260831130141 67 193 0.9 4.3 0.00 0.01 0.00 98 1013.0
20260831125909 67 204 1.7 5.2 0.00 0.01 0.00 98 1013.0
20260831125141 67 202 1.7 5.2 0.00 0.01 0.00 98 1012.9
20260831124909 67 199 1.7 4.3 0.00 0.01 0.00 98 1012.9
20260831124136 67 183 0.9 3.5 0.00 0.01 0.00 98 1012.9
20260831123659 67 202 1.7 5.2 0.00 0.01 0.00 98 1012.8
20260831123136 67 182 1.7 5.2 0.00 0.01 0.00 98 1012.7
20260831122925 67 173 1.7 4.3 0.00 0.02 0.00 98 1012.6
20260831122136 67 202 2.6 6.1 0.00 0.02 0.00 98 1012.6
20260831121637 67 126 1.7 6.1 0.00 0.02 0.00 98 1012.4
20260831121134 67 117 2.6 5.2 0.00 0.02 0.00 98 1012.2
20260831120634 67 123 2.6 5.2 0.00 0.02 0.00 98 1012.3
20260831120137 67 123 1.7 5.2 0.00 0.02 0.00 98 1012.4
20260831115626 66 138 0.9 4.3 0.00 0.02 0.00 98 1012.5
20260831115126 66 189 2.6 4.3 0.00 0.02 0.00 98 1012.7
20260831114915 66 159 0.9 3.5 0.00 0.02 0.00 98 1012.5
20260831114359 66 140 0.9 4.3 0.00 0.02 0.00 98 1012.5
20260831113626 66 158 1.7 4.3 0.00 0.02 0.00 98 1012.5
20260831113126 66 138 1.7 4.3 0.00 0.02 0.00 98 1012.7
20260831112625 66 121 1.7 5.2 0.00 0.02 0.00 98 1012.6
20260831112125 66 120 0.9 5.2 0.00 0.02 0.00 98 1012.6
20260831111625 66 118 0.9 3.5 0.00 0.03 0.00 98 1012.8
20260831111125 66 130 0.9 2.6 0.00 0.03 0.00 98 1013.1
20260831110621 66 164 0.0 1.7 0.00 0.04 0.00 98 1013.2
20260831110124 66 140 0.0 2.6 0.00 0.04 0.00 98 1013.0
20260831105529 66 151 0.0 2.6 0.00 0.04 0.00 98 1013.1
20260831105029 66 130 0.0 2.6 0.00 0.04 0.00 98 1013.1
20260831104527 66 116 0.0 2.6 0.00 0.04 0.00 98 1013.2
20260831104027 66 131 0.0 1.7 0.00 0.04 0.00 98 1013.4
20260831103527 66 142 0.0 1.7 0.00 0.04 0.00 98 1013.4
20260831103026 66 117 0.9 2.6 0.00 0.04 0.00 98 1013.4
20260831102520 66 106 0.9 2.6 0.00 0.04 0.00 98 1013.3
20260831102020 66 103 0.0 1.7 0.00 0.04 0.00 98 1013.5
20260831101521 66 100 0.0 1.7 0.00 0.04 0.00 98 1013.6
20260831101242 66 135 0.9 3.5 0.00 0.04 0.00 98 1013.5
20260831100018 66 166 0.9 3.5 0.00 0.04 0.00 98 1013.5
20260831095512 66 200 0.9 3.5 0.00 0.04 0.00 98 1013.7
20260831095011 66 147 1.7 3.5 0.00 0.04 0.00 98 1013.5
20260831094511 66 97 1.7 3.5 0.00 0.04 0.00 98 1013.6
20260831094012 66 123 0.0 3.5 0.00 0.04 0.00 98 1013.8
20260831093511 66 168 0.9 2.6 0.00 0.04 0.00 98 1013.8
20260831093011 66 157 0.9 3.5 0.00 0.04 0.00 98 1013.8
20260831092735 66 157 1.7 3.5 0.00 0.04 0.00 98 1014.0
20260831092011 66 172 0.9 2.6 0.00 0.04 0.00 98 1014.0
20260831091510 66 152 0.9 2.6 0.00 0.04 0.00 98 1013.9
20260831091012 66 162 0.9 2.6 0.00 0.04 0.00 98 1014.0
20260831090511 66 169 0.0 2.6 0.00 0.04 0.00 98 1014.1
20260831090010 66 189 0.9 1.7 0.00 0.04 0.00 98 1014.1
20260831085510 66 100 0.0 1.7 0.00 0.04 0.00 98 1014.3
20260831085010 66 97 0.0 1.7 0.00 0.04 0.00 98 1014.1
20260831084510 66 82 1.7 1.7 0.00 0.04 0.00 98 1014.0
20260831084008 66 99 0.0 0.9 0.00 0.04 0.00 98 1014.0
20260831083506 66 103 0.0 1.7 0.00 0.04 0.00 98 1013.9
20260831083006 66 100 0.9 2.6 0.00 0.04 0.00 98 1013.8
20260831082505 66 111 0.9 2.6 0.00 0.04 0.00 98 1013.8
20260831082008 66 114 0.9 2.6 0.00 0.04 0.00 98 1013.9
20260831081504 66 113 0.9 2.6 0.00 0.04 0.00 98 1013.8
20260831081004 66 123 0.9 2.6 0.00 0.04 0.00 98 1013.8
20260831080500 66 89 1.7 2.6 0.00 0.04 0.00 98 1013.8
20260831075959 66 145 0.9 2.6 0.00 0.04 0.00 98 1013.7
20260831075459 66 127 0.9 2.6 0.00 0.04 0.00 98 1013.7
20260831074958 66 144 0.9 3.5 0.00 0.04 0.00 98 1013.5
20260831074457 66 86 1.7 3.5 0.00 0.04 0.00 98 1013.3
20260831073955 66 102 0.9 2.6 0.00 0.04 0.00 98 1013.3
20260831073723 66 95 1.7 2.6 0.00 0.04 0.00 98 1013.4
20260831072951 66 86 1.7 2.6 0.00 0.04 0.00 98 1013.4
20260831072451 66 100 1.7 2.6 0.00 0.04 0.00 98 1013.4
20260831071951 66 135 0.0 4.3 0.00 0.04 0.00 98 1013.4
20260831071717 66 114 1.7 4.3 0.00 0.05 0.00 98 1013.4
20260831070950 66 76 2.6 4.3 0.00 0.05 0.00 98 1013.5
20260831070452 66 86 2.6 4.3 0.00 0.06 0.00 98 1013.6
20260831065953 66 99 1.7 6.1 0.00 0.06 0.00 98 1013.7
20260831065449 66 86 3.5 6.1 0.00 0.06 0.00 97 1013.7
20260831064951 66 85 3.5 6.1 0.00 0.06 0.00 98 1013.8
20260831064455 66 97 1.7 4.3 0.00 0.06 0.00 98 1013.9
20260831063948 66 87 2.6 4.3 0.00 0.07 0.00 98 1013.9
20260831063446 66 95 2.6 3.5 0.00 0.07 0.00 98 1014.0
20260831062946 66 103 1.7 3.5 0.00 0.07 0.00 98 1014.1
20260831062448 66 72 1.7 4.3 0.00 0.08 0.00 98 1014.1
20260831061945 66 87 2.6 4.3 0.00 0.08 0.00 97 1014.0
20260831061445 66 102 1.7 2.6 0.00 0.09 0.00 97 1014.0
20260831060945 67 97 1.7 2.6 0.00 0.10 0.00 98 1014.1
20260831060444 67 121 0.9 2.6 0.00 0.10 0.00 98 1014.1
20260831060210 67 93 0.0 3.5 0.00 0.11 0.00 98 1014.1
20260831055443 67 102 1.7 3.5 0.00 0.11 0.00 98 1014.1
20260831054943 67 111 0.9 3.5 0.00 0.11 0.00 98 1014.1